sat.trackr.live / text

‹ back to catalog

STARLINK-31600

NORAD 59341 · 2024-057X

PAYLOAD ACTIVE UNKNOWN

§ Identity

Operator
Country
US
Launch date
2024-03-25
Launch site
AFETR
Launch vehicle
Mass (kg)
RCS (m²)

Purposes: comms

External: N2YO · Heavens-Above · Gunter

§ Orbital elements

Epoch: 2026-09-20T01:00:42.166080Z

Period
94.27 min
Inclination
43.0011°
Eccentricity
0.0001274
Mean motion
15.27576002 rev/d
Perigee alt
482.2 km
Apogee alt
483.9 km
Semi-major
6,861.2 km
B*
5.1245e-7
RAAN
177.1819°
Arg perigee
277.1790°
Mean anomaly
82.8916°
Rev number
13,947

§ Raw data

STARLINK-316001 59341U 24057X   26263.04215470 -.00000248  00000+0  51245-6 0  99992 59341  43.0011 177.1819 0001274 277.1790  82.8916 15.27576002139477

JSON: /api/v1/satellites/59341 · /tle

For live sub-satellite position, see the globe view (requires WebGL).

§ Visibility from observer

Set your observer location to see the next 7 days of passes ≥ 10°. The values pass through the URL so the page stays shareable.

No JS? Fill the form by hand. The geolocation button needs JavaScript.